Regional Weather Roundup
Issued by NWS

Home | Current Version | Previous Version | Graphics & Text | Print | Product List | Glossary On
Versions: 1 2 3 4 5 6 7 8 9 10 11 12 13 14 15 16 17 18 19 20 21 22 23 24 25 26 27
000
ASUS45 KBOU 290807
RWRCO

WEATHER ROUNDUP FOR COLORADO
NATIONAL WEATHER SERVICE DENVER/BOULDER CO
200 AM MDT FRI JUL 29 2016

NOTE: "FAIR" INDICATES FEW OR NO CLOUDS BELOW 12000 FEET WITH NO
SIGNIFICANT WEATHER AND/OR OBSTRUCTIONS TO VISIBILITY.

COZ001>005-013-030-031-290900-
...NORTHWEST COLORADO...

CITY           SKY/WX    TMP DP  RH WIND       PRES   REMARKS
CRAIG          FAIR      53  39  59 SE5       30.19R
HAYDEN         FAIR      61  36  39 E8        30.20F
MEEKER         FAIR      58  38  47 E6        30.22S
MOUNT WERNER   NOT AVBL
STEAMBOAT SPGS FAIR      54  39  55 CALM      30.23F
WALDEN         FAIR      48  41  76 CALM      30.36S
$$

COZ006>008-011-290900-
...WEST CENTRAL VALLEYS...

CITY           SKY/WX    TMP DP  RH WIND       PRES   REMARKS
GRAND JUNCTION FAIR      70  29  21 NE5       30.04S
MONTROSE       FAIR      70  35  27 SE9       30.13F
EAGLE          FAIR      59  34  38 SE7       30.25S
RIFLE          FAIR      66  35  31 E6        30.14R
DELTA          NOT AVBL
NUCLA          NOT AVBL
$$

COZ017>023-064>068-290900-
...SOUTHWEST COLORADO...

CITY           SKY/WX    TMP DP  RH WIND       PRES   REMARKS
DURANGO        FAIR      61  38  42 N6        30.23S
CORTEZ         FAIR      64  41  42 E6        30.15F
PAGOSA SPRINGS FAIR      57  37  47 CALM      30.33F
TELLURIDE      FAIR      59  31  34 SE6       30.45F
WOLF CREEK PAS FAIR      52  34  50 SW14      30.69F
$$

COZ009-010-012-014-032>034-037-058>063-290900-
...CENTRAL COLORADO...

CITY           SKY/WX    TMP DP  RH WIND       PRES   REMARKS
ASPEN          FAIR      55  34  45 SW9       30.31S
BUENA VISTA    FAIR      57  37  46 CALM      30.38S
COPPER MTN     FAIR      59  23  25 W7        30.66F
BERTHOUD PASS  HAZE      41  28  60 E12       30.69F VSB 1/2
COTTONWOOD PAS FAIR      61  43  51 CALM      30.52S
GUNNISON       FAIR      54  34  47 NW3       30.35S
KREMMLING      FAIR      50  36  57 CALM      30.32S
LEADVILLE      FAIR      50  28  42 NE3       30.50S
MONARCH PASS   FOG       48  46  93 MISG      30.77F VSB 1/4
SALIDA         FAIR      65  54  69 E10G20    30.42F
SUNLIGHT       NOT AVBL
WILKERSON PASS FAIR      50  46  87 CALM      30.65S
$$

COZ069>075-290900-
...SAN LUIS VALLEY/SANGRE DE CRISTO MOUNTAINS...

CITY           SKY/WX    TMP DP  RH WIND       PRES   REMARKS
ALAMOSA        FAIR      62  46  55 SE8       30.29F
LA VETA PASS   MOCLDY    46  45  93 NE12      30.54F FOG
SAGUACHE       FAIR      57  32  38 NE3       30.34S
$$

COZ035-036-038>040-290900-
...NORTHERN COLORADO FRONT RANGE...

CITY           SKY/WX    TMP DP  RH WIND       PRES   REMARKS
DENVER INTL AP MOCLDY    64  58  80 SE9       30.23F
DMNS CITY PARK   N/A     67  60  77 E2        30.23F
AURORA         MOCLDY    64  60  87 E8        30.25F
FRONT RANGE AP NOT AVBL
ERIE MUNI ARPT CLOUDY    68  58  70 E5        30.22F
BOULDER MUN AP CLOUDY    66  59  77 CALM      30.23F
CENTENNIAL     MOCLDY    64  60  87 SE7       30.26F
BROOMFIELD     CLOUDY    68  57  68 E6        30.26F
LONGMONT       NOT AVBL
$$

COZ041-046-047-076>085-087-088-290900-
...PIKES PEAK/PALMER DIVIDE AND SOUTHERN FOOTHILLS...

CITY           SKY/WX    TMP DP  RH WIND       PRES   REMARKS
COLO. SPRINGS  MOCLDY    63  60  90 CALM      30.32S
A. F. ACADEMY  FAIR      60  58  90 S5        30.32S
SCHRIEVER AFB  NOT AVBL
ELLICOTT       NOT AVBL
FALCON         NOT AVBL
FORT CARSON    MOCLDY    61  59  94 NE5       30.27F
LIMON          FAIR      61  59  93 NE6       30.26R
MONUMENT HILL  FAIR      55  55 100 SW3       30.36F
TRINIDAD       NOT AVBL
$$

COZ042>045-048>051-090-091-290900-
...NORTHEAST COLORADO...

CITY           SKY/WX    TMP DP  RH WIND       PRES   REMARKS
GREELEY ARPT   CLOUDY    64  61  88 CALM      30.23F
AKRON          MOCLDY    62  58  86 S8        30.20F
BURLINGTON     MOCLDY    63  59  87 NE5       30.19F
WRAY           NOT AVBL
STERLING       NOT AVBL
HOLYOKE        NOT AVBL
FORT MORGAN    NOT AVBL
$$

COZ086-089-092>099-290900-
...SOUTHEAST COLORADO...

CITY           SKY/WX    TMP DP  RH WIND       PRES   REMARKS
PUEBLO         FAIR      68  61  78 NE6       30.21R
LA JUNTA       FAIR      69  58  67 NW9       30.13R
LAMAR          FAIR      66  60  81 S13G18    30.09F
SPRINGFIELD      N/A     65  56  72 W12       30.25R
$$




USA.gov is the U.S. government's official web portal to all federal, state and local government web resources and services.